FW8513 Weather Reports


Display with metric or nautical units.
time (UTC)temp
F
wind
direction
speed
MPH
gust
MPH
rain 1hr
in
rain 24hr
in
rain mn
in
humidity
%
barometer
mb
20260506134543 36 162 8.0 14.0 0.00 0.00 0.00 54 1015.3
20260506133047 35 150 7.0 10.0 0.00 0.00 0.00 56 1015.5
20260506131545 32 169 5.0 10.0 0.00 0.00 0.00 60 1015.4
20260506130044 30 167 5.0 8.0 0.00 0.00 0.00 61 1015.4
20260506124543 29 161 5.0 8.0 0.00 0.00 0.00 63 1015.4
20260506123043 27 157 6.0 8.0 0.00 0.00 0.00 63 1015.6
20260506121539 27 160 6.0 8.0 0.00 0.00 0.00 63 1015.6
20260506120045 26 159 5.0 8.0 0.00 0.00 0.00 64 1015.8
20260506114540 26 163 4.0 7.0 0.00 0.00 0.00 63 1015.8
20260506113035 26 161 5.0 7.0 0.00 0.00 0.00 63 1016.1
20260506111543 26 164 5.0 6.0 0.00 0.00 0.00 63 1016.3
20260506110043 26 161 5.0 7.0 0.00 0.00 0.00 63 1016.5
20260506104602 26 161 5.0 7.0 0.00 0.00 0.00 62 1016.6
20260506103045 27 156 5.0 8.0 0.00 0.00 0.00 62 1016.8
20260506101536 26 155 5.0 8.0 0.00 0.00 0.00 62 1016.7
20260506100045 26 157 5.0 8.0 0.00 0.00 0.00 62 1016.9
20260506094540 26 185 4.0 5.0 0.00 0.00 0.00 61 1017.0
20260506093037 27 194 1.0 3.0 0.00 0.00 0.00 60 1017.3
20260506091536 27 194 1.0 4.0 0.00 0.00 0.00 61 1017.5
20260506090043 27 195 3.0 4.0 0.00 0.00 0.00 60 1017.5
20260506084537 27 196 3.0 6.0 0.00 0.00 0.00 60 1017.6
20260506083043 27 202 2.0 4.0 0.00 0.00 0.00 60 1017.8
20260506081537 27 205 2.0 3.0 0.00 0.00 0.00 59 1018.0
20260506073042 27 207 1.0 3.0 0.00 0.00 0.00 58 1018.4
20260506071540 28 207 1.0 5.0 0.00 0.00 0.00 55 1018.6
20260506061543 31 162 1.0 5.0 0.00 0.00 0.00 53 1018.8
20260506044545 36 115 1.0 4.0 0.00 0.00 0.00 47 1018.9
20260506043052 36 114 3.0 4.0 0.00 0.00 0.00 46 1019.0
20260506041538 36 108 1.0 3.0 0.00 0.00 0.00 45 1019.1
20260506040046 37 107 1.0 4.0 0.00 0.00 0.00 45 1019.2
20260506034543 37 105 1.0 4.0 0.00 0.00 0.00 45 1019.2
20260506033039 37 90 2.0 4.0 0.00 0.00 0.00 44 1018.9
20260506031536 38 83 1.0 5.0 0.00 0.00 0.00 42 1018.9
20260506030043 40 79 1.0 3.0 0.00 0.00 0.00 40 1018.8
20260506024546 42 74 2.0 6.0 0.00 0.00 0.00 39 1018.8
20260506023040 43 62 4.0 11.0 0.00 0.00 0.00 38 1018.8
20260506021551 45 61 5.0 12.0 0.00 0.00 0.00 37 1018.6
20260506020036 45 40 8.0 13.0 0.00 0.00 0.00 36 1018.7
20260506014536 47 21 5.0 15.0 0.00 0.00 0.00 34 1018.8
20260506013035 47 36 7.0 14.0 0.00 0.00 0.00 34 1018.9
20260506011546 47 22 8.0 15.0 0.00 0.00 0.00 33 1018.8
20260506010047 48 350 11.0 19.0 0.00 0.00 0.00 32 1018.6
20260506004536 48 21 10.0 17.0 0.00 0.00 0.00 32 1018.9
20260506003043 49 24 10.0 19.0 0.00 0.00 0.00 31 1018.8
20260506001541 48 360 12.0 19.0 0.00 0.00 0.00 31 1019.0
20260506000039 48 349 12.0 18.0 0.00 0.00 0.00 31 1019.0
20260505234600 49 5 13.0 21.0 0.00 0.00 0.00 31 1019.0
20260505233038 49 32 13.0 21.0 0.00 0.00 0.00 30 1018.8
20260505231542 48 347 13.0 24.0 0.00 0.00 0.00 31 1018.8
20260505230042 49 344 14.0 26.0 0.00 0.00 0.00 30 1018.6
20260505224536 50 352 17.0 25.0 0.00 0.00 0.00 29 1018.8
20260505223057 48 341 14.0 20.0 0.00 0.00 0.00 32 1018.9
20260505221537 50 16 15.0 25.0 0.00 0.00 0.00 31 1018.9
20260505220043 49 32 12.0 28.0 0.00 0.00 0.00 31 1018.9
20260505214552 50 27 17.0 28.0 0.00 0.00 0.00 31 1019.0
20260505213037 49 9 13.0 23.0 0.00 0.00 0.00 31 1019.3
20260505211542 49 360 15.0 21.0 0.00 0.00 0.00 32 1019.5
20260505210042 49 343 15.0 23.0 0.00 0.00 0.00 33 1019.5
20260505204542 48 360 13.0 27.0 0.00 0.00 0.00 35 1019.7
20260505203051 48 46 15.0 25.0 0.00 0.00 0.00 33 1019.6
20260505201538 47 336 12.0 25.0 0.00 0.00 0.00 36 1019.7
20260505200038 47 355 14.0 25.0 0.00 0.00 0.00 37 1019.8
20260505194541 47 44 12.0 24.0 0.00 0.00 0.00 36 1019.7
20260505193042 47 32 12.0 22.0 0.00 0.00 0.00 37 1019.9
20260505191546 47 352 15.0 25.0 0.00 0.00 0.00 38 1020.0
20260505190041 47 17 15.0 24.0 0.00 0.00 0.00 39 1019.9
20260505184546 46 341 13.0 21.0 0.00 0.00 0.00 39 1019.9
20260505183047 46 336 15.0 22.0 0.00 0.00 0.00 40 1019.9
20260505181543 46 360 15.0 23.0 0.00 0.00 0.00 39 1020.0
20260505180046 45 355 14.0 22.0 0.00 0.00 0.00 44 1020.0
20260505174537 45 5 10.0 22.0 0.00 0.00 0.00 44 1019.8
20260505173036 45 82 12.0 20.0 0.00 0.00 0.00 47 1019.7
20260505171537 45 40 13.0 20.0 0.00 0.00 0.00 45 1019.7
20260505170037 43 15 11.0 18.0 0.00 0.00 0.00 51 1019.6
20260505164537 41 352 11.0 17.0 0.00 0.00 0.00 54 1019.7
20260505163037 42 5 12.0 18.0 0.00 0.00 0.00 54 1019.6
20260505161539 40 28 7.0 16.0 0.00 0.00 0.00 60 1019.6
20260505153043 39 350 8.0 16.0 0.00 0.00 0.00 66 1020.0
20260505151544 39 338 9.0 14.0 0.00 0.00 0.00 67 1020.0